CAPE
0 nan nan 0 0 0 0 0 nan nan nan nan nan nan nan nan nan nan nan 0 0 1 0 nan nan nan nan nan nan nan nan nan nan nan nan nan nan nan nan nan nan nan nan nan nan nan nan nan nan nan nan nan nan nan 2 4 4 6 12 18 18 24 27 20 20 22 25 35 57 57 100 120 64 64 8 8 22 22 40 39 39 13 3 4 4 6
nan 0 0 0 0 0 nan 0 nan nan nan nan nan nan nan nan nan nan nan 0 0 1 1 1 1 0 nan nan nan nan nan nan nan nan nan nan nan nan nan nan nan nan nan nan nan nan nan nan nan nan nan nan nan nan nan 0 0 1 4 8 8 16 19 21 21 28 37 75 81 81 92 71 24 24 2 5 34 34 40 22 22 4 5 6 6 8
1 nan 0 1 1 0 4 nan 0 0 nan nan nan nan nan nan nan nan nan nan nan nan 0 1 1 1 0 nan nan nan nan nan nan nan nan nan nan nan nan nan nan nan nan nan nan nan nan nan nan nan nan nan nan nan nan nan nan nan nan 0 0 3 5 8 8 15 32 52 47 47 39 17 nan nan 0 19 65 65 47 13 13 2 5 8 8 12
3 9 3 nan nan 0 10 10 nan nan 0 nan nan nan nan nan nan nan nan nan nan nan nan 0 0 1 1 0 nan nan nan nan nan nan nan nan nan nan nan nan nan nan nan nan nan nan nan nan nan nan nan nan nan nan nan nan nan nan nan nan nan nan nan 0 0 nan 1 1 nan nan nan nan nan nan 0 48 61 61 29 4 4 2 6 8 8 18
2 3 15 14 14 15 15 20 8 8 nan 0 0 0 1 0 nan nan nan nan nan nan nan 0 0 1 1 0 0 0 nan nan nan nan nan nan nan nan nan nan nan nan nan nan nan nan nan nan nan nan nan nan nan nan nan nan nan nan nan nan nan nan nan nan nan nan nan nan nan nan nan nan nan nan 1 26 53 53 25 2 2 3 5 9 9 32
2 4 20 39 39 27 33 29 19 19 6 0 nan nan nan 1 1 1 1 1 1 1 1 0 0 1 1 0 nan nan nan nan nan nan nan nan nan nan nan nan nan nan nan nan nan nan nan nan nan nan nan nan nan nan nan nan nan nan nan nan nan nan nan nan nan nan nan nan nan nan nan nan nan nan nan 9 29 29 15 2 2 5 7 11 11 35
13 8 18 29 29 33 47 40 21 21 17 8 1 1 0 1 1 1 2 1 1 2 1 1 1 1 1 nan nan nan nan nan nan nan nan nan nan nan nan nan nan nan nan nan nan nan nan nan nan nan nan nan nan nan nan nan nan nan nan nan nan nan nan nan nan nan nan nan nan nan nan nan nan nan nan 1 9 9 7 5 5 9 9 13 13 34
18 20 25 22 22 20 21 22 30 30 26 18 16 16 11 3 nan nan nan nan nan nan nan nan nan nan nan nan nan nan nan nan 0 0 0 1 1 1 1 0 0 0 0 0 0 nan nan nan nan nan nan nan nan nan nan nan nan nan nan nan nan nan nan nan nan nan nan nan nan nan nan nan nan nan nan nan nan nan nan 6 6 13 23 33 33 40
12 15 20 17 17 17 10 12 26 26 30 24 17 17 13 15 16 16 6 nan nan nan nan nan nan nan nan nan nan nan nan nan nan nan 0 1 2 2 3 2 2 2 1 1 1 0 nan nan nan nan nan nan nan nan nan nan nan nan nan nan nan nan nan nan nan nan nan nan nan nan nan nan nan nan nan nan nan nan nan 1 1 8 19 31 31 44
28 14 11 15 15 20 23 17 27 27 50 41 34 34 25 17 26 26 21 9 9 nan nan nan nan nan nan nan nan nan nan 0 1 1 1 nan 1 1 0 nan nan 3 0 1 1 0 nan nan nan nan nan nan nan nan nan nan nan nan nan nan nan nan nan nan nan nan nan nan nan nan nan nan nan nan nan nan nan nan nan nan nan 1 8 21 21 41
50 28 24 14 14 21 35 55 29 29 33 43 40 40 35 33 30 30 25 22 22 17 nan nan nan nan nan nan nan nan nan nan 0 0 3 nan nan nan nan nan nan nan nan 1 1 0 nan nan nan nan nan nan nan nan nan nan nan nan nan nan nan nan nan nan nan nan nan nan nan nan nan nan nan nan nan nan nan nan nan nan nan nan 1 9 9 23
42 34 33 32 32 28 26 nan 0 0 0 33 39 39 36 33 38 38 31 26 26 24 14 nan nan 0 0 nan nan nan nan nan 0 0 1 1 1 1 1 1 1 0 1 2 2 0 nan nan nan nan nan nan nan nan nan nan nan nan nan nan nan nan nan nan nan nan nan nan nan nan nan nan nan nan nan nan nan nan nan nan nan nan nan 3 3 12
21 31 36 41 41 34 36 0 0 0 0 30 39 39 35 27 35 35 27 26 26 25 14 nan nan 1 1 0 nan nan nan nan nan nan nan 1 1 1 1 2 2 3 4 6 6 8 0 nan nan nan nan nan nan nan nan nan nan nan nan nan nan nan nan nan nan nan nan nan nan nan nan nan nan nan nan nan nan nan nan nan nan nan nan 1 1 8
20 23 27 30 30 34 35 26 26 26 34 38 45 45 46 43 38 38 30 26 26 18 nan nan nan 5 nan nan 1 1 nan nan nan nan nan 1 1 1 0 0 0 2 3 3 3 9 5 nan nan nan nan nan nan nan nan nan nan nan nan nan nan nan nan nan nan nan nan nan nan nan nan nan nan nan nan nan nan nan nan nan nan nan nan 0 0 3
20 23 26 29 29 27 28 37 45 45 54 61 56 56 50 56 40 40 29 29 29 11 nan nan nan 3 1 nan 1 1 1 nan 0 0 1 0 0 0 nan 0 0 1 1 2 2 6 5 2 2 1 nan nan nan nan nan nan nan nan nan nan nan nan nan nan nan nan nan nan nan nan nan nan nan nan nan nan nan nan nan nan nan nan nan nan nan 0
20 24 25 24 24 26 33 40 44 44 42 51 61 61 58 58 47 47 38 44 44 11 0 2 2 6 9 nan nan nan 1 nan 0 0 1 2 nan nan 0 nan nan nan 0 1 1 4 7 8 8 6 7 nan nan nan nan nan nan nan nan nan nan nan nan nan nan nan nan nan nan nan nan nan nan nan nan nan nan nan nan nan nan nan nan nan nan nan
23 23 22 25 25 27 29 45 50 50 50 56 62 62 71 57 52 52 43 37 37 12 10 15 15 14 18 nan 1 1 0 nan nan nan 1 6 nan nan nan nan nan 0 0 1 1 6 6 6 6 8 10 nan nan nan nan nan nan nan nan nan nan nan nan nan nan nan nan nan nan nan nan nan nan nan nan nan nan nan nan nan nan nan nan nan nan nan
21 19 19 22 22 19 19 38 61 61 82 60 68 68 73 65 67 67 56 45 45 34 22 20 20 11 17 14 0 0 0 0 0 0 2 7 nan nan nan nan nan 0 1 1 1 3 5 6 6 7 5 nan nan nan nan nan nan nan nan nan nan nan nan nan nan nan nan nan nan nan nan nan nan nan nan nan nan nan nan nan nan nan nan nan nan nan
21 21 18 19 19 20 22 38 71 71 98 86 72 72 86 74 64 64 61 59 59 44 29 19 19 13 13 23 nan nan 0 1 1 1 4 2 nan nan nan nan nan nan 1 2 2 4 7 7 7 1 nan nan nan nan nan nan nan nan nan nan nan nan nan nan nan nan nan nan nan nan nan nan nan nan nan nan nan nan nan nan nan nan nan nan nan nan
26 26 21 21 21 23 26 31 49 49 86 124 100 100 80 80 80 80 71 54 54 49 35 22 22 15 15 13 nan nan 1 0 0 0 4 3 nan nan 0 nan nan 0 2 3 3 6 7 7 7 1 nan nan nan nan nan nan nan nan nan nan nan nan nan nan nan nan nan nan nan nan nan nan nan nan nan nan nan nan nan nan nan nan nan nan nan nan
35 25 25 19 19 22 16 17 27 27 56 122 134 134 87 68 82 82 63 55 55 54 43 29 29 17 14 6 nan nan 1 0 0 0 1 7 nan nan 0 0 0 1 2 5 5 5 3 6 6 6 nan nan nan nan nan nan nan nan nan nan nan nan nan nan nan nan nan nan nan nan nan nan nan nan nan nan nan nan nan nan nan nan nan nan nan nan
32 26 14 17 17 15 11 14 19 19 39 94 110 110 106 94 68 68 67 53 53 51 59 41 41 27 14 21 nan nan nan 0 nan nan 0 3 nan nan 0 0 0 1 2 1 1 nan nan 3 3 6 3 nan nan nan nan nan nan nan nan nan nan nan nan nan nan nan nan nan nan nan nan nan nan nan nan nan nan nan nan nan nan nan nan nan nan nan
25 22 17 15 15 11 10 15 22 22 38 64 81 81 95 103 88 88 50 38 38 65 75 56 56 9 nan 9 nan nan nan nan nan nan nan 2 13 13 1 nan nan 0 3 4 4 nan nan nan nan 4 5 nan nan nan nan nan nan nan nan nan nan nan nan nan nan nan nan nan nan nan nan nan nan nan nan nan nan nan nan nan nan nan nan nan nan nan
18 23 23 18 18 20 17 15 19 19 29 47 67 67 64 71 90 90 59 63 63 73 63 50 50 3 nan nan nan nan nan nan nan nan nan 1 6 6 1 1 1 0 4 3 3 nan nan nan nan 0 3 0 nan nan nan nan nan nan nan nan nan nan nan nan nan nan nan nan nan nan 0 0 nan nan nan nan nan nan nan nan nan nan nan nan nan nan
24 22 19 18 18 31 28 19 29 29 31 36 50 50 61 74 87 87 93 96 96 83 68 39 39 24 4 2 nan nan 0 0 nan nan nan 3 nan nan 1 2 2 1 1 nan nan nan nan nan nan nan nan 0 nan nan nan nan nan nan nan nan nan nan nan nan nan nan nan nan 0 0 0 0 nan nan nan nan nan nan nan nan nan nan nan nan nan nan
49 52 44 48 48 59 62 56 60 60 60 55 56 56 65 81 83 83 78 91 91 99 95 77 77 54 25 0 nan nan nan 1 nan nan nan 1 nan nan 2 3 3 2 1 0 0 0 nan nan nan nan nan nan nan nan nan nan nan nan nan nan nan nan nan nan nan nan nan nan 0 0 0 0 0 0 nan nan nan nan nan nan nan nan nan nan nan nan
49 60 73 91 91 95 97 113 120 120 125 102 70 70 74 79 67 67 66 49 49 63 93 83 83 73 47 1 nan nan 0 1 nan nan nan 1 nan nan nan 2 2 1 nan 0 0 0 nan nan nan nan nan nan nan nan nan nan nan nan nan nan nan nan nan nan nan nan nan 0 0 0 0 0 nan nan nan nan nan nan nan nan nan nan nan nan nan nan
44 44 49 62 62 72 78 75 81 81 97 126 137 137 112 74 53 53 50 49 49 61 66 80 80 68 40 nan nan nan 0 1 0 0 0 1 nan nan nan 1 1 2 nan nan nan 0 0 nan nan nan nan nan nan nan nan nan nan nan nan nan nan nan nan nan nan nan 0 0 0 0 1 1 nan nan nan nan nan nan nan nan nan nan nan nan nan nan
40 41 40 39 39 42 39 34 33 33 43 57 80 80 109 57 35 35 50 83 83 69 59 66 66 56 39 7 0 0 0 0 1 1 nan 0 nan nan 1 1 1 nan nan nan nan 0 nan nan nan 0 nan nan nan nan nan nan nan nan nan nan nan nan nan nan nan nan 0 0 1 1 1 1 0 0 nan nan nan nan nan nan nan nan nan nan nan nan
16 20 18 10 10 2 1 0 11 11 21 33 47 47 75 89 50 50 70 102 102 78 64 77 77 74 53 nan nan nan nan 1 2 2 nan nan nan nan 0 nan nan nan nan nan nan nan nan nan nan 0 0 0 nan nan nan nan nan nan nan nan nan nan nan nan nan nan 0 1 1 1 1 1 0 0 nan nan nan nan nan nan nan nan nan nan nan nan
2 1 nan nan nan nan nan nan 0 0 11 25 37 37 55 105 101 101 103 108 108 70 69 101 101 99 78 0 nan nan nan 1 1 1 nan nan nan nan nan nan nan nan nan nan nan nan nan nan nan nan 0 0 nan nan nan nan nan nan nan nan nan 0 nan nan nan nan 0 1 1 1 0 0 nan nan nan nan nan nan nan nan nan nan nan nan nan nan
7 1 2 4 4 2 2 1 0 0 1 3 12 12 29 47 115 115 184 204 204 155 95 67 67 90 106 91 65 65 40 nan 0 0 0 0 nan nan nan nan nan nan nan nan nan 2 0 1 1 nan nan nan nan nan nan nan nan nan nan nan nan nan nan 0 0 1 1 2 2 2 0 nan nan nan nan nan nan nan nan nan nan nan nan nan nan nan
49 40 42 45 45 41 24 23 12 12 2 3 5 5 14 28 55 55 132 203 203 216 152 77 77 61 89 104 113 113 49 nan nan nan 0 1 nan nan nan nan nan nan nan nan nan nan nan 0 0 nan nan nan 0 0 nan nan nan nan nan nan nan nan nan 0 0 0 2 2 4 4 3 0 nan nan nan nan nan nan nan nan nan nan nan nan nan nan
61 85 78 56 56 43 37 37 12 12 6 6 8 8 14 21 34 34 79 157 157 241 237 159 159 75 60 59 116 116 77 nan nan nan nan 0 nan nan nan nan nan nan nan nan nan nan nan nan nan nan nan nan nan nan nan nan nan nan nan nan nan nan nan nan nan nan 0 nan nan nan 1 1 2 2 nan nan nan nan nan nan nan nan nan nan nan nan
35 31 20 14 14 8 5 6 8 8 10 13 12 12 14 21 34 34 90 138 138 206 256 219 219 141 94 84 116 116 149 nan nan nan nan nan nan nan nan nan nan nan nan nan nan nan nan nan nan nan nan nan nan nan nan nan nan nan nan nan nan nan nan nan nan nan nan nan nan nan nan 0 0 0 1 0 2 2 1 nan nan nan nan nan nan nan
23 21 14 5 5 3 4 6 7 7 12 12 10 10 16 22 29 29 54 131 131 201 278 261 261 184 141 113 143 143 152 1 nan nan nan nan nan nan nan nan nan nan nan nan nan nan nan nan nan nan nan nan nan nan nan nan nan nan nan nan nan nan nan nan nan nan nan nan nan nan nan 0 1 1 1 2 3 3 3 1 1 nan nan nan nan nan
29 23 12 9 9 14 13 6 8 8 18 19 10 10 11 18 26 26 44 107 107 188 269 272 272 222 172 121 115 115 89 nan nan nan nan nan nan nan nan nan nan nan nan nan nan nan nan nan nan nan nan nan nan nan nan nan nan nan nan nan nan nan nan 0 0 nan nan nan nan nan nan 0 1 1 3 6 7 7 9 4 4 nan nan nan nan nan
56 47 43 45 45 44 33 35 24 24 23 17 11 11 9 15 26 26 28 79 79 155 274 310 310 265 245 159 93 93 94 nan nan nan 3 0 nan nan nan nan nan nan nan nan nan nan nan nan nan nan nan nan nan nan nan nan nan nan nan nan nan nan nan nan nan nan nan nan 1 1 0 0 1 1 3 6 9 9 8 6 6 4 nan nan nan nan
53 58 69 82 82 72 67 56 54 54 41 25 7 7 8 19 26 26 30 45 45 116 221 278 278 308 3 nan 58 58 41 nan nan nan nan nan nan nan nan nan nan nan nan nan nan nan nan nan nan nan nan nan nan nan nan nan nan nan nan nan nan nan nan nan nan 0 nan nan 2 2 0 nan 0 0 1 3 6 6 7 6 6 4 1 1 1 nan
42 39 51 56 56 57 44 61 62 62 68 66 53 53 34 24 30 30 40 50 50 93 174 241 241 284 168 64 57 57 9 nan nan nan nan nan nan nan nan nan nan nan nan nan nan nan nan nan nan nan nan nan nan nan nan nan nan nan nan nan nan nan nan nan nan nan nan nan 0 0 0 nan 0 0 1 2 3 3 4 2 2 2 2 2 2 1
22 20 11 10 10 13 15 31 51 51 58 66 69 69 51 60 90 90 116 101 101 116 127 201 201 233 260 143 108 108 77 nan nan nan nan nan nan nan nan nan nan nan nan nan nan nan nan nan nan nan nan nan nan nan nan nan nan 1 1 nan nan nan 0 1 1 0 nan nan 0 0 1 0 1 1 2 2 1 1 2 2 2 1 2 2 2 1
19 11 9 5 5 4 6 13 30 30 44 81 107 107 95 85 147 147 211 199 199 186 172 188 188 164 187 120 90 90 75 nan nan nan nan nan nan nan nan nan nan nan nan nan nan nan nan nan nan nan nan nan nan nan nan nan nan 1 1 nan nan 0 0 1 1 nan nan nan 0 0 2 1 1 1 2 3 nan nan 0 1 1 2 2 0 0 0
9 7 6 6 6 6 12 18 27 27 33 33 61 61 82 100 166 166 195 185 185 188 219 188 188 171 177 105 40 40 19 nan nan nan nan nan nan nan nan nan nan nan nan nan nan nan nan nan nan nan nan nan nan nan nan nan nan nan 0 0 0 nan nan nan nan nan nan 0 0 0 1 1 1 1 1 nan nan nan nan 2 2 3 2 nan nan nan
10 7 9 13 13 23 19 19 23 23 15 18 43 43 70 96 150 150 145 162 162 188 187 177 177 155 91 88 47 47 0 nan nan nan nan nan nan nan nan 0 0 nan nan nan nan nan nan 0 0 nan nan nan nan nan nan nan nan nan 0 1 1 nan nan nan nan 0 0 0 1 1 1 2 nan nan nan nan nan nan nan nan nan nan nan nan nan nan
1 4 32 47 47 44 46 47 28 28 21 22 42 42 50 70 125 125 100 173 173 219 281 250 250 92 60 106 61 61 nan nan nan nan nan nan nan nan nan nan nan nan nan nan nan nan nan 0 0 nan nan nan nan nan nan nan nan nan 0 1 1 nan nan nan nan 0 nan nan 0 0 1 nan nan nan nan nan nan nan nan nan nan nan nan nan nan nan
27 44 58 63 63 46 63 82 70 70 46 46 54 54 43 55 91 91 153 214 214 282 334 228 228 23 31 119 45 45 nan nan nan nan nan nan nan nan nan nan nan nan nan nan nan nan nan nan nan nan nan nan nan nan nan nan nan nan 0 1 1 0 nan nan nan nan nan nan nan nan 1 nan nan nan nan nan nan nan nan nan nan nan nan nan nan nan
12 23 42 53 53 67 88 101 98 98 94 92 78 78 60 66 149 149 211 288 288 323 287 166 166 37 49 103 26 26 nan nan nan nan nan nan nan nan nan nan nan nan nan nan nan nan nan nan nan nan nan 0 0 0 nan nan nan nan nan nan nan nan nan nan nan nan 0 nan nan nan nan nan nan nan nan nan nan nan nan nan nan nan nan nan nan nan
16 26 35 44 44 58 77 95 106 106 104 109 94 94 109 80 144 144 206 284 284 311 251 95 95 59 47 58 6 6 nan nan nan nan nan nan nan nan nan nan nan nan nan nan nan nan nan nan nan nan nan nan nan nan nan nan nan nan nan nan nan nan nan nan nan nan nan nan nan nan nan nan nan nan nan nan nan nan nan nan nan nan nan nan nan nan
23 31 38 41 41 48 68 91 105 105 103 114 141 141 157 135 196 196 140 243 243 284 169 77 77 51 25 7 0 0 nan nan nan nan nan nan nan nan nan nan nan nan nan nan nan nan nan nan nan nan nan nan nan nan nan nan nan nan nan nan nan nan nan nan nan nan nan nan nan nan nan nan nan nan nan nan nan nan nan nan nan nan nan nan nan nan
36 37 45 44 44 43 56 79 82 82 105 150 180 180 173 171 127 127 143 223 223 216 149 79 79 39 15 1 nan nan nan nan nan nan nan nan nan nan nan nan nan nan nan nan nan nan nan nan nan nan nan nan nan nan nan nan nan nan nan nan nan nan nan nan nan nan nan nan nan nan nan nan nan nan nan nan nan nan nan nan nan nan nan nan nan nan
48 45 45 51 51 50 54 70 83 83 107 121 123 123 142 157 189 189 205 152 152 122 120 67 67 29 9 1 nan nan nan nan nan nan nan nan nan nan nan nan nan nan nan nan nan nan nan nan nan nan 0 0 nan nan nan nan nan nan nan nan nan nan nan nan nan nan nan nan nan nan nan nan nan nan nan nan nan nan nan nan nan nan nan nan nan nan
CIN
0 nan nan 0 0 0 0 0 nan nan nan nan nan nan nan nan nan nan nan -0 -0 0 -0 nan nan nan nan nan nan nan nan nan nan nan nan nan nan nan nan nan nan nan nan nan nan nan nan nan nan nan nan nan nan nan -30 -21 -21 -0 -0 0 0 0 0 0 0 0 0 0 0 0 0 -2 -10 -10 -27 -30 -25 -25 -21 -11 -11 -1 0 0 0 0
nan 0 0 0 0 0 nan 0 nan nan nan nan nan nan nan nan nan nan nan 0 0 0 0 -0 -0 -0 nan nan nan nan nan nan nan nan nan nan nan nan nan nan nan nan nan nan nan nan nan nan nan nan nan nan nan nan nan -31 -31 -20 -14 -1 -1 0 0 0 0 0 0 0 0 0 -0 -7 -19 -19 -26 -23 -15 -15 -14 -10 -10 0 0 0 0 0
-45 nan 0 0 0 0 -18 nan 0 0 nan nan nan nan nan nan nan nan nan nan nan nan 0 0 0 0 0 nan nan nan nan nan nan nan nan nan nan nan nan nan nan nan nan nan nan nan nan nan nan nan nan nan nan nan nan nan nan nan nan -27 -27 -2 -1 -0 -0 -0 0 -0 -1 -1 -7 -18 nan nan -24 -14 -6 -6 -4 -0 -0 0 0 0 0 0
-19 -16 -28 nan nan 0 -9 -6 nan nan 0 nan nan nan nan nan nan nan nan nan nan nan nan 0 0 0 0 -0 nan nan nan nan nan nan nan nan nan nan nan nan nan nan nan nan nan nan nan nan nan nan nan nan nan nan nan nan nan nan nan nan nan nan nan -3 -3 nan -3 -6 nan nan nan nan nan nan -27 -7 -6 -6 -3 -0 -0 0 0 0 0 0
-9 -1 -12 -19 -19 -8 -3 -0 -0 -0 nan 0 0 0 0 0 nan nan nan nan nan nan nan 0 0 0 0 -0 -0 -0 nan nan nan nan nan nan nan nan nan nan nan nan nan nan nan nan nan nan nan nan nan nan nan nan nan nan nan nan nan nan nan nan nan nan nan nan nan nan nan nan nan nan nan nan -15 -7 -7 -7 -1 0 0 0 0 0 0 0
0 -2 -15 -5 -5 -8 -3 -3 -3 -3 -8 -0 nan nan nan 0 0 0 0 0 0 0 0 0 0 0 0 -1 nan nan nan nan nan nan nan nan nan nan nan nan nan nan nan nan nan nan nan nan nan nan nan nan nan nan nan nan nan nan nan nan nan nan nan nan nan nan nan nan nan nan nan nan nan nan nan -9 -6 -6 -0 0 0 0 0 0 0 0
-6 -9 -18 -8 -8 -5 -2 -3 -6 -6 -5 -3 -0 -0 -9 0 0 0 0 0 0 0 0 0 0 0 0 nan nan nan nan nan nan nan nan nan nan nan nan nan nan nan nan nan nan nan nan nan nan nan nan nan nan nan nan nan nan nan nan nan nan nan nan nan nan nan nan nan nan nan nan nan nan nan nan -14 -5 -5 0 0 0 0 0 0 0 0
-3 -3 -6 -9 -9 -9 -7 -8 -4 -4 -2 -1 -4 -4 -1 -11 nan nan nan nan nan nan nan nan nan nan nan nan nan nan nan nan -0 -0 -0 -0 -0 -0 -0 -0 -0 -0 -0 -0 -0 nan nan nan nan nan nan nan nan nan nan nan nan nan nan nan nan nan nan nan nan nan nan nan nan nan nan nan nan nan nan nan nan nan nan 0 0 0 0 0 0 0
-2 0 -1 -3 -3 0 -6 -6 -4 -4 -3 -3 -1 -1 -1 -2 -4 -4 -3 nan nan nan nan nan nan nan nan nan nan nan nan nan nan nan -0 -0 -0 -0 -0 -0 -0 -0 -0 -0 -0 -1 nan nan nan nan nan nan nan nan nan nan nan nan nan nan nan nan nan nan nan nan nan nan nan nan nan nan nan nan nan nan nan nan nan -2 -2 0 0 0 0 0
-4 -5 -4 -12 -12 -11 -5 -0 -7 -7 -4 -4 -4 -4 -3 -2 -2 -2 -2 -2 -2 nan nan nan nan nan nan nan nan nan nan -0 0 0 0 nan -0 -0 -1 nan nan -0 -1 -0 -0 -1 nan nan nan nan nan nan nan nan nan nan nan nan nan nan nan nan nan nan nan nan nan nan nan nan nan nan nan nan nan nan nan nan nan nan nan -3 -0 0 0 0
-0 -5 -5 -11 -11 -11 -4 -0 -9 -9 -7 -4 -4 -4 -3 -1 -1 -1 -1 -2 -2 -2 nan nan nan nan nan nan nan nan nan nan -0 -0 0 nan nan nan nan nan nan nan nan -1 -1 -2 nan nan nan nan nan nan nan nan nan nan nan nan nan nan nan nan nan nan nan nan nan nan nan nan nan nan nan nan nan nan nan nan nan nan nan nan -5 -0 -0 0
-0 -3 -7 -8 -8 -10 -5 nan 0 0 0 -1 -1 -1 -1 -2 -1 -1 -1 -1 -1 -2 -3 nan nan -0 -1 nan nan nan nan nan -0 -0 -0 -0 -0 -0 -0 -0 -0 -1 -1 -1 -1 -3 nan nan nan nan nan nan nan nan nan nan nan nan nan nan nan nan nan nan nan nan nan nan nan nan nan nan nan nan nan nan nan nan nan nan nan nan nan -3 -3 0
0 -1 -6 -5 -5 -7 -5 -35 0 0 -25 -2 -1 -1 -1 -4 -3 -3 -2 -1 -1 -2 -7 nan nan -0 0 -1 nan nan nan nan nan nan nan -0 -0 -0 -0 -0 -0 -0 -0 -0 -0 -0 -3 nan nan nan nan nan nan nan nan nan nan nan nan nan nan nan nan nan nan nan nan nan nan nan nan nan nan nan nan nan nan nan nan nan nan nan nan -3 -3 -0
0 0 -2 -5 -5 -6 -9 -9 -5 -5 -5 -4 -2 -2 -1 -3 -5 -5 -3 -1 -1 -3 nan nan nan -3 nan nan -0 -0 nan nan nan nan nan -0 -0 -0 -1 -1 -1 -1 -0 -0 -0 -0 -2 nan nan nan nan nan nan nan nan nan nan nan nan nan nan nan nan nan nan nan nan nan nan nan nan nan nan nan nan nan nan nan nan nan nan nan nan -3 -3 -0
0 -0 -1 -1 -1 -2 -9 -10 -5 -5 -5 -3 -3 -3 -6 -4 -6 -6 -5 -2 -2 -8 nan nan nan -8 -9 nan 0 0 -0 nan -1 -1 -0 -1 -1 -1 nan -1 -1 -1 -1 -1 -1 -0 -2 -2 -2 -1 nan nan nan nan nan nan nan nan nan nan nan nan nan nan nan nan nan nan nan nan nan nan nan nan nan nan nan nan nan nan nan nan nan nan nan -1
0 -2 -2 -1 -1 -0 -4 -10 -7 -7 -7 -6 -4 -4 -3 -3 -4 -4 -3 -2 -2 -11 -22 -8 -8 -2 -3 nan nan nan -0 nan -1 -1 -1 -1 nan nan -1 nan nan nan -1 -1 -1 -1 -1 -1 -1 -1 -1 nan nan nan nan nan nan nan nan nan nan nan nan nan nan nan nan nan nan nan nan nan nan nan nan nan nan nan nan nan nan nan nan nan nan nan
-1 -1 -1 -0 -0 0 0 -4 -10 -10 -9 -7 -4 -4 -2 -4 -6 -6 -5 -6 -6 -15 -7 -2 -2 -2 -3 nan 0 0 -0 nan nan nan -2 -1 nan nan nan nan nan -1 -1 -1 -1 -1 -1 -1 -1 -1 -1 nan nan nan nan nan nan nan nan nan nan nan nan nan nan nan nan nan nan nan nan nan nan nan nan nan nan nan nan nan nan nan nan nan nan nan
-2 -0 -0 -0 -0 0 0 -8 -7 -7 -6 -8 -5 -5 -4 -4 -5 -5 -5 -6 -6 -6 -6 -3 -3 -5 -3 -8 0 0 -0 -0 -0 -0 -1 -1 nan nan nan nan nan -1 -1 -1 -1 -1 -1 -1 -1 -2 -2 nan nan nan nan nan nan nan nan nan nan nan nan nan nan nan nan nan nan nan nan nan nan nan nan nan nan nan nan nan nan nan nan nan nan nan
-2 -1 -0 0 0 0 0 -2 -5 -5 -3 -5 -8 -8 -1 -2 -4 -4 -6 -5 -5 -5 -6 -6 -6 -6 -4 -1 nan nan -0 -0 -0 -0 -0 -1 nan nan nan nan nan nan -1 -1 -1 -1 -1 -1 -1 -4 nan nan nan nan nan nan nan nan nan nan nan nan nan nan nan nan nan nan nan nan nan nan nan nan nan nan nan nan nan nan nan nan nan nan nan nan
-2 -2 -1 -0 -0 0 -1 0 -1 -1 -3 -2 -1 -1 -1 -1 -2 -2 -3 -6 -6 -5 -8 -9 -9 -8 -4 -13 nan nan 0 -1 -0 -0 0 -1 nan nan 0 nan nan -0 -1 -2 -2 -1 -1 -1 -1 -4 nan nan nan nan nan nan nan nan nan nan nan nan nan nan nan nan nan nan nan nan nan nan nan nan nan nan nan nan nan nan nan nan nan nan nan nan
-1 -3 0 -0 -0 0 0 0 -0 -0 -3 -1 -0 -0 -1 -1 -0 -0 -5 -8 -8 -7 -7 -6 -6 -9 -5 -12 nan nan 0 -0 -0 -0 -1 -1 nan nan 0 -0 -0 -0 -1 -1 -1 -2 -2 -1 -1 -1 nan nan nan nan nan nan nan nan nan nan nan nan nan nan nan nan nan nan nan nan nan nan nan nan nan nan nan nan nan nan nan nan nan nan nan nan
-2 0 0 0 0 0 0 0 -0 -0 -4 -3 -0 -0 -0 -0 -1 -1 -3 -8 -8 -7 -3 -4 -4 -6 -10 -2 nan nan nan 0 nan nan -2 -1 nan nan 0 -0 -0 -0 -1 -3 -3 nan nan -2 -2 -1 -3 nan nan nan nan nan nan nan nan nan nan nan nan nan nan nan nan nan nan nan nan nan nan nan nan nan nan nan nan nan nan nan nan nan nan nan
-1 -0 0 0 0 0 0 0 0 0 -1 -5 -2 -2 -1 -0 -0 -0 -1 -2 -2 -1 -2 -3 -3 -22 nan -24 nan nan nan nan nan nan nan -1 -2 -2 0 nan nan -0 -1 -2 -2 nan nan nan nan -2 -2 nan nan nan nan nan nan nan nan nan nan nan nan nan nan nan nan nan nan nan nan nan nan nan nan nan nan nan nan nan nan nan nan nan nan nan
-2 -1 -1 -2 -2 -2 -2 -1 -4 -4 -3 -3 -4 -4 -8 -4 -1 -1 -1 -0 -0 -0 -0 -1 -1 -38 nan nan nan nan nan nan nan nan nan -2 -2 -2 0 0 0 -0 -0 -4 -4 nan nan nan nan -8 -3 -9 nan nan nan nan nan nan nan nan nan nan nan nan nan nan nan nan nan nan -0 -0 nan nan nan nan nan nan nan nan nan nan nan nan nan nan
-3 -2 -2 -3 -3 -3 -2 -5 -2 -2 -4 -5 -5 -5 -8 -7 -5 -5 -4 -1 -1 -1 -1 -1 -1 -2 -20 -26 nan nan -0 -0 nan nan nan -2 nan nan 0 0 0 -0 -1 nan nan nan nan nan nan nan nan -10 nan nan nan nan nan nan nan nan nan nan nan nan nan nan nan nan -0 -0 -0 -0 nan nan nan nan nan nan nan nan nan nan nan nan nan nan
-1 -1 -2 -0 -0 -0 0 0 0 0 0 -2 -4 -4 -3 -3 -5 -5 -5 -2 -2 -1 -1 -0 -0 -3 -10 -20 nan nan nan -1 nan nan nan -2 nan nan 0 0 0 0 -1 0 0 0 nan nan nan nan nan nan nan nan nan nan nan nan nan nan nan nan nan nan nan nan nan nan -0 -0 -0 0 -0 -0 nan nan nan nan nan nan nan nan nan nan nan nan
0 0 0 0 0 0 0 0 0 0 0 0 -1 -1 -2 -2 -2 -2 -2 -4 -4 -3 -0 -0 -0 -2 -7 -11 nan nan -1 -1 nan nan nan -3 nan nan nan 0 0 -0 nan 0 0 0 nan nan nan nan nan nan nan nan nan nan nan nan nan nan nan nan nan nan nan nan nan -1 -0 -0 -0 0 nan nan nan nan nan nan nan nan nan nan nan nan nan nan
0 0 0 0 0 0 0 0 0 0 0 0 0 0 0 -0 -0 -0 -1 -5 -5 -3 -0 -0 -0 -1 -4 nan nan nan -1 -1 -1 -1 -3 -3 nan nan nan 0 0 -0 nan nan nan 0 -0 nan nan nan nan nan nan nan nan nan nan nan nan nan nan nan nan nan nan nan -1 -0 -0 -0 0 0 nan nan nan nan nan nan nan nan nan nan nan nan nan nan
0 0 0 0 0 0 0 0 0 0 0 0 0 0 0 -0 -0 -0 -2 -4 -4 -2 -0 -0 -0 -1 -1 -3 -2 -2 -1 -1 -1 -1 nan -2 nan nan 0 0 0 nan nan nan nan 0 nan nan nan 0 nan nan nan nan nan nan nan nan nan nan nan nan nan nan nan nan -0 0 -0 -0 0 0 0 0 nan nan nan nan nan nan nan nan nan nan nan nan
0 0 0 -0 -0 -0 -0 -0 0 0 0 0 0 0 0 -0 -0 -0 -2 -1 -1 -0 -1 -1 -1 -1 -1 nan nan nan nan -1 -1 -1 nan nan nan nan -0 nan nan nan nan nan nan nan nan nan nan 0 0 0 nan nan nan nan nan nan nan nan nan nan nan nan nan nan -0 -0 0 0 0 0 0 0 nan nan nan nan nan nan nan nan nan nan nan nan
-0 -0 nan nan nan nan nan nan -2 -2 0 0 0 0 0 -1 -1 -1 -1 -0 -0 -1 -1 -0 -0 -1 -1 -9 nan nan nan -1 -1 -1 nan nan nan nan nan nan nan nan nan nan nan nan nan nan nan nan 0 0 nan nan nan nan nan nan nan nan nan -0 nan nan nan nan -0 -0 0 0 0 0 nan nan nan nan nan nan nan nan nan nan nan nan nan nan
0 0 0 0 0 0 0 -0 -5 -5 -9 -8 -6 -6 -1 -0 -1 -1 -1 -1 -1 -0 -0 -1 -1 -1 -1 -0 -0 -0 -0 nan -0 -0 -1 -2 nan nan nan nan nan nan nan nan nan -1 -0 0 0 nan nan nan nan nan nan nan nan nan nan nan nan nan nan -0 -0 -0 -0 0 0 0 0 nan nan nan nan nan nan nan nan nan nan nan nan nan nan nan
-1 -1 -1 -1 -1 -0 0 0 -3 -3 -4 -3 -6 -6 -1 -3 -1 -1 -3 -2 -2 -0 0 -0 -0 -0 -1 -1 -1 -1 -2 nan nan nan -0 -3 nan nan nan nan nan nan nan nan nan nan nan -0 -0 nan nan nan 0 0 nan nan nan nan nan nan nan nan nan -1 -1 -1 -0 -0 0 0 0 -0 nan nan nan nan nan nan nan nan nan nan nan nan nan nan
-5 -2 -2 -3 -3 -3 -1 0 -3 -3 -3 -1 -4 -4 -0 -3 -4 -4 -4 -3 -3 -0 0 -1 -1 -1 -0 -2 -1 -1 -2 nan nan nan nan -2 nan nan nan nan nan nan nan nan nan nan nan nan nan nan nan nan nan nan nan nan nan nan nan nan nan nan nan nan nan nan -2 nan nan nan -1 -1 0 0 nan nan nan nan nan nan nan nan nan nan nan nan
-3 -0 0 -0 -0 -3 -5 -6 -4 -4 -2 -0 -0 -0 -2 -4 -4 -4 -4 -4 -4 -3 -1 -3 -3 -3 -1 -0 -1 -1 -2 nan nan nan nan nan nan nan nan nan nan nan nan nan nan nan nan nan nan nan nan nan nan nan nan nan nan nan nan nan nan nan nan nan nan nan nan nan nan nan nan -4 -1 -1 0 0 0 0 -0 nan nan nan nan nan nan nan
-3 -0 -0 -2 -2 -1 -2 -4 -4 -4 -2 -1 -3 -3 -2 -5 -6 -6 -7 -5 -5 -3 -1 -2 -2 -4 -3 -2 -1 -1 -3 -53 nan nan nan nan nan nan nan nan nan nan nan nan nan nan nan nan nan nan nan nan nan nan nan nan nan nan nan nan nan nan nan nan nan nan nan nan nan nan nan -5 -2 -2 -1 0 -0 -0 0 -0 -0 nan nan nan nan nan
-5 -5 -6 -6 -6 -0 -0 -4 -5 -5 -0 -1 -6 -6 -4 -3 -4 -4 -6 -7 -7 -4 -1 -2 -2 -3 -3 -4 -2 -2 -7 nan nan nan nan nan nan nan nan nan nan nan nan nan nan nan nan nan nan nan nan nan nan nan nan nan nan nan nan nan nan nan nan -1 -1 nan nan nan nan nan nan -5 -3 -3 -0 0 0 0 0 0 0 nan nan nan nan nan
-2 -2 -4 -3 -3 -2 -2 -1 -2 -2 -0 -0 -6 -6 -8 -7 -1 -1 -4 -7 -7 -5 -1 -0 -0 -1 -1 -3 -4 -4 -5 nan nan nan -1 -3 nan nan nan nan nan nan nan nan nan nan nan nan nan nan nan nan nan nan nan nan nan nan nan nan nan nan nan nan nan nan nan nan -2 -2 -2 -4 -4 -4 -1 -0 0 0 0 0 0 0 nan nan nan nan
-2 -2 -1 -1 -1 -2 -2 -2 -0 -0 0 -3 -10 -10 -10 -7 -3 -3 -3 -5 -5 -4 -2 -0 -0 -0 -32 nan -8 -8 -10 nan nan nan nan nan nan nan nan nan nan nan nan nan nan nan nan nan nan nan nan nan nan nan nan nan nan nan nan nan nan nan nan nan nan -1 nan nan -1 -1 -1 nan -4 -4 -4 -2 -0 -0 0 0 0 0 -0 -2 -2 nan
-2 -3 -1 -0 -0 -1 -3 -1 -0 -0 -0 -1 -5 -5 -8 -6 -3 -3 -1 -6 -6 -5 -3 -1 -1 -0 -5 -9 -6 -6 -16 nan nan nan nan nan nan nan nan nan nan nan nan nan nan nan nan nan nan nan nan nan nan nan nan nan nan nan nan nan nan nan nan nan nan nan nan nan -2 -2 -1 nan -2 -2 -3 -2 -1 -1 -1 -0 -0 0 -0 -0 -0 0
-2 -2 -3 -0 -0 -0 -2 -0 -1 -1 -6 -7 -9 -9 -12 -7 -2 -2 -1 -3 -3 -4 -6 -2 -2 -1 -1 -4 -3 -3 -4 nan nan nan nan nan nan nan nan nan nan nan nan nan nan nan nan nan nan nan nan nan nan nan nan nan nan -1 -1 nan nan nan -1 -0 -0 -1 nan nan -2 -2 -1 -2 -1 -1 -1 -2 -4 -4 -2 -1 -1 -0 -1 -0 -0 -0
-0 -1 -1 -1 -1 -1 -1 -0 -3 -3 -7 -6 -3 -3 -5 -4 -1 -1 -0 -1 -1 -2 -3 -2 -2 -1 -1 -3 -3 -3 -3 nan nan nan nan nan nan nan nan nan nan nan nan nan nan nan nan nan nan nan nan nan nan nan nan nan nan -1 -1 nan nan -1 -0 -0 -0 nan nan nan -2 -2 -1 -2 -2 -2 -1 -2 nan nan -4 -2 -2 -1 -1 -1 -1 -1
0 0 -1 -2 -2 -2 -1 -2 -1 -1 -5 -7 -5 -5 -4 -3 -1 -1 -1 -1 -1 -1 -1 -1 -1 -0 -0 -2 -4 -4 -6 nan nan nan nan nan nan nan nan nan nan nan nan nan nan nan nan nan nan nan nan nan nan nan nan nan nan nan -1 -2 -2 nan nan nan nan nan nan -1 -1 -1 -1 -2 -3 -3 -3 nan nan nan nan -0 -0 0 -0 nan nan nan
0 -1 -2 -3 -3 -3 -2 -3 -3 -3 -8 -8 -4 -4 -3 -3 -2 -2 -1 -1 -1 -1 -1 -1 -1 -0 -0 -1 -2 -2 -19 nan nan nan nan nan nan nan nan -3 -3 nan nan nan nan nan nan -2 -2 nan nan nan nan nan nan nan nan nan -1 -1 -1 nan nan nan nan -1 -1 -1 -0 -0 -1 -2 nan nan nan nan nan nan nan nan nan nan nan nan nan nan
-0 -1 -1 -1 -1 -2 -1 -1 -5 -5 -9 -8 -4 -4 -4 -4 -2 -2 -1 -0 -0 -1 -0 -0 -0 0 -0 -0 -3 -3 nan nan nan nan nan nan nan nan nan nan nan nan nan nan nan nan nan -1 -1 nan nan nan nan nan nan nan nan nan -1 -1 -1 nan nan nan nan -1 nan nan -0 -0 -1 nan nan nan nan nan nan nan nan nan nan nan nan nan nan nan
-4 -2 -1 -1 -1 -4 -1 -0 -2 -2 -5 -5 -3 -3 -6 -6 -4 -4 -1 -0 -0 -0 -0 -1 -1 -0 -0 -0 -4 -4 nan nan nan nan nan nan nan nan nan nan nan nan nan nan nan nan nan nan nan nan nan nan nan nan nan nan nan nan -1 -1 -1 -1 nan nan nan nan nan nan nan nan -0 nan nan nan nan nan nan nan nan nan nan nan nan nan nan nan
-2 -1 -0 -1 -1 -1 -0 -0 -1 -1 -1 -1 -2 -2 -5 -6 -2 -2 -1 -0 -0 -0 -1 -3 -3 -1 -0 -1 -4 -4 nan nan nan nan nan nan nan nan nan nan nan nan nan nan nan nan nan nan nan nan nan -1 -0 -0 nan nan nan nan nan nan nan nan nan nan nan nan -1 nan nan nan nan nan nan nan nan nan nan nan nan nan nan nan nan nan nan nan
-0 -0 -0 -1 -1 -1 -0 -0 -1 -1 -1 -1 -2 -2 -2 -6 -1 -1 -0 -0 -0 -0 -1 -5 -5 -1 -0 -1 -13 -13 nan nan nan nan nan nan nan nan nan nan nan nan nan nan nan nan nan nan nan nan nan nan nan nan nan nan nan nan nan nan nan nan nan nan nan nan nan nan nan nan nan nan nan nan nan nan nan nan nan nan nan nan nan nan nan nan
-1 -1 -1 -1 -1 -0 -0 -0 -1 -1 -1 -1 -1 -1 -1 -4 -0 -0 -2 -0 -0 -0 -3 -4 -4 -0 -1 -8 -17 -17 nan nan nan nan nan nan nan nan nan nan nan nan nan nan nan nan nan nan nan nan nan nan nan nan nan nan nan nan nan nan nan nan nan nan nan nan nan nan nan nan nan nan nan nan nan nan nan nan nan nan nan nan nan nan nan nan
-1 -1 -1 -1 -1 -1 -0 -1 -1 -1 -0 -0 -0 -0 -0 -2 -6 -6 -5 -2 -2 -2 -3 -3 -3 -1 -3 -15 nan nan nan nan nan nan nan nan nan nan nan nan nan nan nan nan nan nan nan nan nan nan nan nan nan nan nan nan nan nan nan nan nan nan nan nan nan nan nan nan nan nan nan nan nan nan nan nan nan nan nan nan nan nan nan nan nan nan
-1 -1 -1 -1 -1 -1 -1 -1 -1 -1 -0 -1 -1 -1 -0 -2 -3 -3 -2 -2 -2 -1 -2 -3 -3 -2 -8 -14 nan nan nan nan nan nan nan nan nan nan nan nan nan nan nan nan nan nan nan nan nan nan 0 0 nan nan nan nan nan nan nan nan nan nan nan nan nan nan nan nan nan nan nan nan nan nan nan nan nan nan nan nan nan nan nan nan nan nan
Wind_Speed
2 2 2 2 2 2 3 3 4 5 6 5 5 4 3 4 5 6 7 7 8 8 8 8 8 8 8 10 11 12 12 12 11 11 10 10 9 9 9 9 9 10 10 10 11 11 11 11 11 11 12 12 12 13 13 14 15 15 15 15 15 15 15 14 14 13 13 13 13 13 14 13 13 12 12 11 11 12 13 15 17 18 20 20 19 19
2 2 2 3 3 4 4 4 5 5 6 6 5 4 4 4 5 5 5 6 7 8 7 7 8 8 9 9 10 12 12 12 12 12 11 11 11 11 10 10 10 11 11 11 11 11 11 11 11 12 12 12 12 12 13 14 15 15 16 16 16 16 15 15 14 14 13 13 14 14 14 13 12 11 11 12 12 14 16 17 19 20 20 20 19 19
2 2 2 2 3 4 5 5 5 5 6 6 6 5 5 6 5 5 4 5 6 7 7 7 7 7 8 8 9 11 12 12 12 12 12 12 11 11 11 11 11 11 11 11 11 11 11 12 12 12 12 12 12 12 13 13 14 14 15 15 15 15 15 15 14 14 13 13 14 14 13 12 11 11 11 13 14 16 18 19 20 21 20 20 19 18
5 4 3 2 3 5 6 5 5 5 5 6 6 6 7 6 6 5 5 5 5 5 6 6 6 6 6 7 8 10 11 12 12 12 12 12 12 11 11 11 11 11 11 11 12 12 12 12 13 13 13 13 13 13 13 13 13 14 14 14 14 14 14 14 14 14 14 13 13 12 12 11 11 11 12 14 16 18 19 21 21 21 21 20 19 18
7 6 4 3 4 5 6 6 5 5 4 5 6 6 7 6 6 5 5 5 5 6 5 6 6 6 5 5 6 8 11 11 12 12 12 12 12 11 11 11 11 11 11 12 12 13 13 13 14 14 14 13 13 13 13 13 13 13 13 13 13 14 14 14 14 14 14 13 13 12 12 12 12 13 14 15 17 19 20 21 21 21 20 19 19 18
7 6 4 4 4 5 5 5 4 4 5 5 6 6 6 6 6 5 5 5 5 5 5 5 5 6 6 5 6 8 9 11 11 11 11 12 12 12 12 12 12 12 12 13 13 14 14 14 14 14 14 14 14 14 14 14 14 14 13 13 13 13 13 13 13 13 14 13 13 12 12 12 13 14 15 17 18 20 21 21 21 21 20 19 19 18
7 5 4 4 5 5 4 4 4 4 5 5 5 5 5 5 5 6 6 6 5 5 4 4 4 5 5 5 6 7 8 9 10 10 11 11 12 12 12 13 13 13 14 14 15 15 15 15 15 15 15 15 15 15 15 14 14 14 14 13 13 13 13 13 13 13 13 13 13 12 13 13 14 15 16 18 19 20 21 22 21 21 20 19 19 18
8 7 6 5 5 5 5 4 4 4 5 6 6 6 6 5 5 5 6 6 5 5 4 4 4 4 5 5 6 6 6 7 7 8 9 10 11 12 13 13 14 14 15 15 15 16 15 15 15 15 15 15 15 15 15 15 15 14 14 13 13 12 12 12 12 12 13 13 13 13 13 13 14 16 17 18 19 20 21 22 22 21 20 19 19 18
10 10 8 7 7 7 6 6 6 5 6 6 7 7 8 7 6 6 6 6 5 5 4 4 4 5 5 5 5 5 6 6 6 6 6 7 8 9 11 13 14 15 16 16 16 16 16 16 16 16 16 16 16 16 16 16 15 15 14 14 13 12 12 12 12 12 13 13 13 13 13 14 15 17 18 18 19 20 21 22 22 21 21 20 19 18
10 10 9 8 7 7 7 8 7 6 6 6 7 8 8 9 8 7 7 6 6 5 4 5 5 6 5 5 5 5 5 6 7 7 8 7 8 8 9 10 11 13 15 15 16 16 16 16 16 17 17 17 17 17 16 16 15 15 15 14 13 13 12 12 12 12 13 13 13 14 14 15 16 18 18 19 19 20 20 21 21 21 21 20 19 18
9 9 8 7 7 6 6 7 6 4 4 6 7 7 7 7 8 8 8 8 7 5 5 5 6 6 6 5 4 5 5 5 6 7 8 8 8 9 9 8 9 10 12 14 15 16 17 17 17 17 17 17 17 17 16 16 16 15 15 14 14 13 13 12 12 12 12 13 13 14 15 17 18 19 19 19 20 20 20 20 20 20 20 20 19 17
8 7 6 6 6 5 4 4 2 1 2 4 6 7 7 7 7 8 9 9 8 7 6 5 6 6 7 5 5 4 4 4 5 5 5 6 7 7 7 7 7 8 9 11 13 15 16 18 18 18 18 18 18 17 17 16 16 16 16 15 14 14 14 13 12 12 12 12 13 14 16 18 19 20 20 20 20 20 20 19 19 19 19 19 18 17
8 7 6 6 5 5 4 2 1 1 2 4 6 7 7 6 6 6 8 9 9 7 5 4 5 6 6 6 5 4 4 4 4 4 4 4 5 5 5 5 6 6 6 7 8 10 14 17 18 18 18 18 18 18 18 17 17 17 16 16 15 15 14 14 13 13 13 13 14 15 16 18 19 19 20 20 20 20 19 19 18 18 18 18 17 17
8 8 8 8 7 6 5 4 4 4 5 5 6 7 6 5 5 6 7 8 8 6 4 4 4 5 5 5 5 5 5 4 4 4 4 4 5 5 4 5 5 5 5 5 6 7 10 12 13 15 18 18 18 18 18 18 18 18 17 16 16 16 15 15 15 14 14 14 14 15 16 17 18 18 19 19 19 19 18 18 18 17 17 17 17 17
9 8 9 9 9 8 6 5 6 6 7 6 6 6 5 5 6 6 6 8 7 5 3 4 5 5 5 5 5 5 5 5 4 5 5 5 5 5 5 5 5 5 5 5 6 6 7 9 9 10 14 17 18 17 17 17 18 19 18 17 17 16 16 16 16 16 16 16 16 16 16 17 17 17 18 18 18 17 17 17 17 16 16 16 16 17
8 8 9 10 9 9 7 6 6 7 7 6 6 6 7 7 6 6 6 8 6 4 3 4 6 6 5 4 4 5 5 5 6 6 6 6 5 5 5 5 5 5 5 5 6 6 6 7 8 9 11 16 17 18 18 17 18 19 19 18 18 17 17 17 18 17 17 17 17 17 17 17 17 17 17 17 17 17 16 16 16 16 15 16 16 16
8 8 9 9 10 10 9 8 7 7 7 6 6 7 7 8 7 6 6 6 5 4 5 6 6 7 5 3 3 4 6 6 6 6 7 7 5 4 5 5 6 6 5 6 6 6 6 6 7 8 10 14 17 19 19 19 19 20 20 19 19 18 18 18 18 18 18 18 18 18 18 17 17 17 17 17 17 17 16 16 16 15 15 15 15 15
8 8 9 9 10 10 9 9 8 7 6 6 7 7 8 8 8 8 7 7 6 6 6 6 6 6 6 4 3 3 6 6 6 6 7 7 5 4 4 5 6 6 6 6 6 6 6 7 7 8 8 14 17 19 20 20 20 20 20 20 19 19 19 19 19 19 19 19 19 19 18 18 18 18 17 17 17 17 17 17 17 16 15 15 14 14
8 8 9 9 9 9 9 9 8 7 6 5 5 6 8 8 8 8 8 8 8 9 8 8 7 7 7 6 4 3 6 6 6 5 6 7 5 3 4 4 5 6 6 7 7 6 7 7 8 9 10 14 17 19 21 21 21 21 21 21 20 20 20 19 19 19 19 19 19 19 19 19 19 18 18 18 18 18 18 18 17 16 15 15 14 13
9 9 9 9 9 10 10 10 9 9 8 7 7 7 8 7 8 9 9 8 8 9 9 9 9 9 7 7 5 4 6 6 5 5 6 7 5 3 5 5 6 7 7 7 6 6 6 7 8 9 11 14 17 20 22 22 22 22 22 22 21 21 21 20 20 20 19 19 19 19 19 19 19 19 19 19 19 18 18 18 17 16 15 14 13 12
10 10 10 9 9 10 10 9 10 11 11 10 9 8 8 8 8 9 8 8 9 9 9 9 10 10 7 7 5 4 8 7 6 5 5 5 5 4 4 6 6 7 8 7 6 5 6 6 7 8 10 14 17 20 22 23 23 23 23 23 23 22 22 21 21 21 20 20 20 20 20 20 20 20 19 19 19 19 18 18 17 16 15 14 13 12
11 11 11 12 11 11 11 11 12 13 14 12 10 9 7 7 8 8 7 7 8 9 10 10 10 9 7 8 5 5 8 8 7 6 3 5 6 5 4 5 6 7 8 7 5 4 5 6 7 8 10 14 17 20 22 23 24 24 24 24 24 23 23 23 22 22 21 21 20 20 20 20 20 20 19 19 19 18 18 17 16 15 15 14 13 12
12 12 12 12 12 12 12 12 12 12 13 12 11 10 7 7 7 8 7 7 8 8 8 8 7 6 5 5 5 6 8 8 7 6 4 6 7 5 4 4 5 6 8 7 5 4 5 6 6 7 10 16 19 21 23 24 25 25 25 25 25 24 24 23 23 23 22 22 21 21 20 20 20 20 19 19 18 18 17 16 16 15 14 14 13 13
13 13 12 11 11 11 11 10 10 10 10 11 11 10 8 8 8 9 8 9 9 9 9 8 6 5 5 5 5 5 7 7 7 6 5 7 6 4 4 5 6 6 8 5 3 3 4 5 6 6 8 15 19 22 23 25 25 25 25 25 25 25 25 24 24 23 23 23 22 21 21 20 20 20 19 19 18 17 17 16 16 15 15 14 13 13
12 12 12 11 12 12 12 12 12 12 11 11 10 10 10 10 11 11 11 11 11 10 10 10 10 9 8 7 6 6 6 7 7 7 6 6 5 4 4 5 6 6 6 3 2 2 4 5 5 5 6 11 17 22 24 25 26 26 26 26 26 26 25 25 25 24 24 23 23 22 21 21 20 20 19 18 18 17 16 16 16 15 14 14 13 13
17 17 17 18 19 21 22 21 21 20 20 16 13 11 10 10 10 11 11 11 11 10 11 11 12 12 10 8 7 6 6 7 7 7 6 5 4 3 4 5 6 6 4 2 1 2 4 5 5 4 5 8 14 21 25 26 26 26 26 26 26 26 26 25 25 25 24 24 23 22 22 21 20 20 19 18 18 17 17 16 16 15 14 13 13 12
27 27 28 28 27 27 26 26 26 26 26 24 21 18 14 12 11 11 12 11 10 10 11 12 12 12 11 9 8 7 6 7 7 8 7 6 4 3 4 5 5 5 4 2 2 3 4 4 4 4 4 5 9 15 24 26 27 27 27 27 27 26 26 26 25 25 24 24 23 23 22 21 21 20 19 19 18 17 17 17 16 15 14 13 11 11
28 29 29 29 28 28 27 27 26 26 26 26 26 25 20 14 12 12 12 10 9 9 11 12 12 11 10 9 8 7 7 8 8 7 7 6 5 4 4 5 5 5 4 2 1 2 3 3 2 2 3 3 5 10 18 24 26 27 27 27 27 27 26 26 26 25 24 24 23 23 22 21 21 20 19 19 18 18 17 17 16 15 13 11 9 8
25 26 27 28 28 28 28 27 26 26 26 26 26 24 19 13 12 11 11 9 8 9 11 11 10 10 9 7 5 5 6 7 8 8 7 6 4 3 4 5 5 4 4 3 1 0 1 1 1 1 2 3 4 6 10 18 21 22 25 26 27 26 26 26 25 25 24 24 23 23 22 21 21 20 20 19 19 18 18 18 16 14 11 9 7 6
19 20 22 23 24 24 24 22 22 22 23 25 25 23 18 13 11 11 10 9 9 10 12 10 9 8 8 5 4 3 5 6 8 8 8 6 5 3 4 5 5 5 5 4 2 1 1 1 1 1 1 3 3 4 5 10 12 13 16 20 22 23 24 24 24 24 24 23 23 22 22 21 21 20 20 19 19 19 18 18 15 12 8 7 6 5
16 16 16 17 17 17 17 16 16 17 18 20 21 19 16 12 11 10 10 9 10 11 11 10 9 8 8 6 5 4 4 5 8 9 9 7 5 4 5 5 5 5 5 5 4 2 2 2 1 0 1 2 2 2 3 5 6 7 8 10 13 16 20 21 22 22 22 22 22 22 22 21 21 20 20 20 19 19 19 17 14 11 7 7 6 6
15 14 14 14 13 13 13 12 12 12 13 14 14 14 13 12 11 10 10 10 10 10 11 10 9 8 8 8 8 7 4 4 8 11 11 7 4 3 6 6 5 5 5 5 5 4 3 3 2 1 0 1 2 2 2 3 5 6 7 7 7 10 16 17 17 18 18 20 21 21 21 21 21 20 20 20 20 19 18 17 15 11 8 8 7 7
12 12 11 11 12 11 11 11 11 11 11 11 11 11 12 12 12 12 11 10 10 10 11 11 10 9 8 9 9 8 5 4 8 13 13 8 5 4 5 6 6 5 5 5 4 3 2 3 3 2 1 0 1 2 1 2 4 5 6 7 7 8 12 13 13 13 13 15 17 18 20 20 20 20 20 20 19 19 18 17 15 13 10 8 8 7
12 11 11 11 11 11 11 11 11 11 11 11 12 12 11 11 12 12 11 11 10 10 10 10 10 10 9 8 8 8 7 5 8 13 15 10 6 4 5 6 6 6 6 4 3 2 1 3 3 3 2 1 1 1 1 1 3 4 5 6 7 7 9 10 10 9 10 11 11 12 14 16 17 19 19 19 19 18 18 17 16 14 12 9 8 8
13 13 12 12 12 12 12 12 12 12 12 12 12 12 12 11 11 11 11 11 10 10 10 9 9 10 10 8 8 8 8 6 9 13 14 11 7 5 5 6 7 7 7 6 4 3 2 3 4 5 4 3 1 1 2 1 0 2 4 5 6 7 8 9 9 9 9 9 9 9 9 10 12 14 15 16 17 17 17 17 16 15 13 11 10 8
13 13 13 13 13 13 13 12 12 12 12 12 11 11 11 11 11 10 10 10 10 10 10 9 9 9 8 8 8 8 7 5 8 12 14 11 8 6 6 6 7 8 8 7 6 5 4 4 5 6 6 5 3 2 1 1 1 1 3 4 5 6 7 8 8 8 9 9 9 8 8 9 9 10 11 15 17 17 18 17 17 15 14 13 11 10
13 13 13 13 12 12 12 12 12 12 12 11 11 11 11 11 11 10 10 10 10 10 10 10 9 9 9 8 8 8 7 6 8 11 14 11 9 8 7 6 7 8 9 8 8 7 6 5 5 6 6 6 5 4 3 1 1 2 3 4 5 5 6 7 7 8 8 9 9 9 8 9 9 10 11 15 17 17 17 17 17 16 15 14 12 11
12 12 12 11 10 11 11 11 11 11 11 11 11 11 11 11 12 12 11 11 11 11 10 9 9 10 12 11 11 10 10 9 9 12 14 11 10 8 7 6 7 9 9 9 9 8 7 7 7 7 6 5 5 5 5 5 5 5 5 5 5 5 6 6 7 7 7 8 9 9 9 9 9 9 10 12 12 12 12 13 13 14 14 14 13 12
11 11 11 10 10 10 10 10 10 10 10 10 10 10 11 12 13 13 12 12 12 12 12 11 10 9 10 11 12 12 12 10 10 10 12 11 9 9 8 7 8 8 8 8 8 8 9 8 8 8 7 6 5 5 6 6 7 7 6 5 4 4 5 6 7 7 7 8 9 9 9 8 8 8 9 10 10 10 10 10 11 12 12 11 11 11
11 11 11 11 11 10 10 10 10 10 10 10 10 11 11 11 11 12 12 12 12 12 13 13 11 10 9 9 10 11 12 9 9 10 10 10 9 9 9 8 8 8 8 7 8 8 9 8 8 8 8 7 7 7 6 7 7 8 8 6 4 4 6 6 6 7 7 8 8 9 8 8 8 8 9 10 10 10 10 10 10 11 11 10 9 9
12 11 11 11 11 11 11 11 10 10 9 9 9 9 9 9 9 9 10 10 11 11 11 11 11 10 9 9 9 10 11 9 10 12 11 11 12 11 10 9 9 9 9 8 8 8 9 8 8 8 8 7 8 8 8 8 9 10 11 8 7 6 7 7 7 7 7 7 8 8 9 9 9 10 10 10 9 9 9 9 10 10 10 9 9 9
13 12 11 11 10 10 10 10 10 10 10 9 9 9 9 8 8 8 8 8 8 9 9 9 9 9 9 9 9 9 10 9 11 12 13 13 13 13 11 9 9 8 9 9 9 9 9 9 9 9 9 8 8 8 7 8 9 10 10 9 8 8 7 7 6 6 7 7 8 8 10 10 9 10 10 9 8 7 7 8 10 10 10 8 7 7
13 12 11 10 10 10 10 10 10 10 9 9 9 10 10 9 9 9 9 9 8 8 8 8 8 9 8 8 8 7 7 9 11 13 13 13 13 13 12 11 10 9 9 9 9 9 9 9 9 9 9 9 10 10 10 9 9 9 9 9 9 8 6 6 6 7 7 8 8 8 9 9 9 9 8 7 6 6 7 8 9 10 9 7 6 5
11 10 9 9 8 8 9 9 9 9 9 9 10 10 10 10 10 10 10 9 8 8 8 8 8 8 9 9 8 7 5 6 10 13 13 14 14 13 12 12 12 11 11 10 9 8 8 8 8 8 8 9 9 10 10 10 10 10 9 9 10 9 8 8 8 9 8 8 8 8 8 8 7 7 7 6 6 6 6 7 7 7 7 6 5 4
7 7 7 8 8 8 9 9 9 9 9 10 10 10 10 10 10 10 9 9 9 9 8 8 7 7 8 8 7 6 4 4 6 8 10 13 15 14 12 11 11 11 11 10 10 9 8 8 8 7 7 8 9 10 10 11 11 10 10 10 9 8 7 7 9 10 10 9 9 9 8 8 7 7 6 6 6 6 6 7 7 7 6 6 5 5
8 8 8 8 9 9 10 10 10 10 10 10 10 11 10 10 10 9 9 9 9 9 9 8 7 7 8 7 6 5 4 4 4 5 5 8 10 11 10 10 10 10 10 10 10 9 9 8 8 8 8 7 8 9 10 11 11 11 10 10 9 8 6 7 8 10 10 10 10 9 9 9 8 8 8 8 7 6 6 6 7 7 7 7 6 6
10 10 10 10 10 10 10 10 10 10 10 10 11 11 10 10 9 9 9 9 9 9 9 8 8 9 9 7 6 5 5 5 5 5 5 6 7 8 7 7 8 9 9 8 9 9 8 9 9 10 9 9 8 8 9 10 11 11 11 10 9 9 8 8 9 9 9 9 10 10 11 10 9 9 8 8 7 6 5 5 6 6 7 7 6 6
11 11 11 11 11 11 11 10 10 10 11 11 10 10 10 10 10 10 9 9 9 8 8 7 8 8 8 7 6 6 6 7 7 7 6 6 6 6 5 4 5 5 5 5 5 5 5 6 8 9 10 10 9 9 9 10 10 10 10 10 10 9 9 9 9 9 8 9 10 11 12 11 10 10 9 8 7 6 5 5 5 5 5 6 6 6
11 11 11 11 11 11 11 10 10 11 11 10 10 10 9 10 11 11 9 9 9 8 8 8 8 8 7 7 6 6 7 7 7 7 7 6 6 5 5 5 4 4 4 4 4 4 4 4 4 3 4 7 8 9 10 10 10 9 9 9 9 9 9 9 9 9 8 9 11 12 11 10 10 10 10 9 8 7 7 6 5 4 4 5 5 6
11 11 11 11 11 12 11 11 11 11 11 11 10 10 9 9 10 9 9 9 9 8 8 8 8 7 7 7 6 6 7 7 7 7 7 6 6 6 6 6 6 6 5 4 4 4 4 4 4 5 4 2 4 7 10 10 10 9 8 8 8 8 9 8 9 9 9 10 11 11 10 9 8 8 8 9 9 9 8 6 5 4 3 4 4 5
11 11 11 11 11 11 11 11 11 11 11 11 11 10 10 10 9 9 9 9 9 9 8 8 7 7 8 7 7 7 8 8 7 7 7 6 7 7 8 8 7 7 6 5 4 4 3 3 2 3 4 5 3 3 7 10 10 9 8 8 7 7 8 8 8 8 9 10 10 10 10 9 8 8 8 9 9 9 8 7 6 6 4 4 4 5
Wind_Direction
251 260 258 237 245 262 264 253 254 260 264 261 256 251 245 244 248 251 251 251 251 251 249 248 247 244 240 230 223 217 212 207 202 198 197 197 198 199 200 201 203 204 203 202 201 199 197 196 196 195 195 195 194 194 194 195 196 198 200 202 205 207 207 207 206 205 203 202 203 204 204 200 195 191 190 187 181 175 168 164 162 162 162 162 163 165
251 259 263 238 240 250 264 252 248 250 259 263 262 259 255 254 254 254 250 248 246 247 247 247 245 242 240 235 224 215 211 205 200 197 196 197 198 198 200 201 202 204 205 204 203 202 200 198 198 197 197 197 196 196 196 196 197 198 200 202 203 205 205 204 204 205 205 205 205 205 203 198 193 188 186 183 178 171 165 162 161 162 163 164 166 167
261 256 251 232 237 247 263 257 249 245 252 262 266 268 267 263 261 257 252 247 243 242 242 241 240 239 236 235 225 217 213 207 202 199 198 199 199 200 200 201 202 204 205 205 205 203 202 200 199 198 198 197 197 198 198 197 197 198 199 200 201 202 203 203 204 206 208 209 209 206 201 196 190 186 184 182 177 171 166 164 163 164 165 167 169 170
273 268 261 245 241 247 257 261 257 251 248 259 265 269 267 265 263 260 255 250 246 242 239 236 235 234 233 231 227 222 218 213 209 205 202 202 202 202 202 203 204 205 206 206 206 205 203 202 200 198 197 197 197 197 198 198 197 197 198 199 201 203 204 204 206 207 210 212 211 207 200 194 189 186 185 183 178 173 168 166 165 166 168 169 171 172
273 272 271 265 259 256 254 257 258 257 255 259 263 265 264 262 262 262 260 254 249 245 241 236 232 231 231 228 226 224 223 220 217 213 209 208 207 206 206 206 207 208 208 208 208 206 205 203 201 199 197 197 196 196 197 197 197 198 199 201 204 206 208 209 210 210 212 213 211 207 200 193 189 186 185 183 179 174 169 167 167 167 169 170 172 173
271 271 271 268 266 264 261 254 253 257 262 263 263 262 261 259 260 261 260 255 251 248 244 238 234 232 232 230 228 227 227 227 225 222 218 215 213 212 211 211 211 212 212 212 210 208 206 204 202 199 198 196 196 195 196 196 197 198 200 203 207 210 213 214 215 215 214 214 211 207 200 193 188 185 184 182 178 173 169 167 167 168 169 171 172 173
276 272 268 265 266 266 264 257 253 253 261 265 264 261 256 254 254 254 254 252 251 250 250 246 241 239 238 236 234 232 231 231 231 229 226 223 220 218 217 216 215 215 215 215 213 211 208 205 202 200 198 197 196 196 196 196 197 198 200 203 207 211 214 217 218 218 217 215 212 207 200 193 187 183 182 179 175 171 168 167 167 168 169 170 172 174
283 279 270 267 268 268 264 258 252 249 254 262 266 265 261 253 247 245 246 246 246 247 251 251 248 244 240 238 236 234 233 232 232 232 230 228 226 224 222 220 219 218 218 217 215 212 209 206 203 200 198 198 197 197 197 196 197 197 198 200 204 208 212 216 218 218 217 215 211 206 199 191 185 180 179 175 172 169 167 167 167 167 169 170 172 174
280 279 274 271 271 272 271 264 254 245 242 251 258 264 266 264 258 249 242 240 238 235 236 242 245 244 239 234 233 233 233 231 229 229 228 227 226 225 224 223 222 221 220 219 217 213 209 206 203 200 199 198 198 197 197 196 196 196 196 197 199 203 208 212 215 216 216 213 209 203 196 188 182 178 176 173 169 167 166 166 166 167 168 170 171 173
271 272 273 271 268 267 267 266 259 248 234 241 248 256 262 265 265 263 254 245 236 226 220 230 237 241 240 232 228 229 232 233 232 230 228 226 225 225 225 225 224 222 221 220 218 215 210 206 203 200 199 199 198 197 196 195 194 194 193 193 195 197 202 206 210 212 212 208 204 199 192 185 180 176 174 170 167 165 164 164 165 165 167 168 170 172
272 271 272 271 266 259 254 258 259 251 229 238 245 249 249 253 259 263 263 258 248 233 220 225 231 235 238 233 225 221 223 230 233 232 230 227 225 225 226 225 225 225 224 222 220 217 212 208 204 201 200 199 198 197 195 194 193 192 191 190 191 192 195 199 202 204 205 201 197 192 186 181 177 174 171 168 165 163 162 162 162 163 164 167 169 170
281 280 276 274 270 263 253 255 261 255 219 236 245 248 244 242 246 254 261 262 258 248 234 227 227 230 233 230 223 214 213 221 226 228 227 225 223 223 224 225 226 226 225 225 222 219 215 209 205 202 200 199 198 197 195 193 192 190 189 188 188 188 189 191 192 193 193 191 187 183 179 176 173 171 168 165 163 161 160 159 159 160 161 164 166 168
282 282 281 277 274 268 262 259 254 230 229 236 243 247 249 243 240 244 252 257 258 255 245 234 230 229 229 226 220 215 212 218 221 222 221 220 216 214 216 221 223 223 223 224 224 221 216 211 206 203 201 199 198 196 194 192 191 189 188 187 186 185 184 184 183 183 182 179 176 173 171 169 167 166 164 162 160 158 157 156 156 156 158 161 164 166
281 281 279 276 273 269 265 261 257 254 249 242 243 247 252 250 245 243 247 251 252 252 244 243 240 235 227 221 218 217 216 220 221 222 222 219 212 207 207 216 218 218 215 220 222 221 216 212 209 205 202 200 198 196 194 192 190 189 187 186 184 183 181 179 177 176 174 171 167 165 162 161 160 159 158 157 156 155 154 153 154 155 157 160 163 167
283 283 280 277 274 272 270 265 263 261 258 250 246 245 248 248 244 242 243 246 246 243 232 243 246 244 236 219 210 208 212 218 223 227 228 224 213 202 199 210 216 216 212 216 220 219 214 211 210 207 203 202 200 197 194 193 190 188 187 185 183 181 179 177 175 173 170 167 164 160 158 156 155 155 154 153 153 152 151 152 153 155 158 161 165 169
283 283 281 280 278 277 274 271 268 266 263 257 249 243 243 242 239 237 239 245 245 239 225 239 247 249 242 216 196 194 201 213 222 229 234 232 218 198 192 204 214 217 212 214 216 216 212 212 210 208 204 201 198 196 194 194 192 189 187 185 182 180 179 177 175 173 170 167 164 161 158 156 154 153 153 152 151 151 151 152 154 157 160 164 167 170
278 278 278 279 278 278 278 276 273 270 268 261 252 244 239 238 236 236 237 241 241 237 233 237 243 248 247 223 198 192 194 205 220 232 239 238 226 200 187 199 212 218 215 214 214 213 209 211 211 209 205 199 196 194 193 193 192 190 187 184 181 179 178 177 175 173 171 168 165 162 160 158 156 155 154 153 152 152 152 154 156 159 162 166 169 171
272 273 275 276 277 278 280 280 279 278 276 268 259 250 242 239 235 233 232 234 236 237 237 236 238 243 251 237 212 188 189 198 213 229 237 241 231 202 183 200 212 219 219 217 214 211 208 210 212 211 207 197 194 193 193 193 192 189 187 183 180 178 177 176 175 173 171 169 166 164 161 159 158 157 156 155 155 154 155 156 158 160 163 166 169 171
270 270 272 275 277 280 281 281 283 285 286 281 274 263 255 244 235 230 229 230 231 233 235 237 237 239 244 240 221 179 182 190 202 218 228 240 233 196 175 200 214 220 223 220 215 210 208 210 211 210 206 197 194 193 192 192 191 189 186 182 179 176 175 174 173 172 170 168 166 164 162 160 159 158 157 157 156 156 157 158 159 161 163 166 168 170
270 268 267 274 278 279 276 275 277 281 285 290 289 282 271 260 248 239 234 232 232 233 234 235 235 236 238 240 220 175 172 181 192 208 224 234 230 198 177 196 210 220 227 224 217 209 206 210 211 209 204 199 195 193 192 191 190 188 185 181 178 175 174 173 172 170 169 167 165 164 162 161 160 159 158 158 158 158 159 160 161 162 164 167 170 173
269 267 265 269 273 274 272 272 274 277 280 287 288 284 276 271 263 254 245 238 236 235 232 233 233 233 230 233 216 172 170 177 187 201 221 232 229 211 183 195 206 218 229 228 220 209 205 208 210 210 208 202 197 194 192 190 189 187 183 180 177 175 173 172 170 169 168 166 165 163 162 161 161 160 160 160 160 160 161 162 163 165 167 170 173 176
266 265 265 263 263 265 268 271 273 274 276 280 280 279 278 277 273 268 261 250 242 236 230 230 231 230 228 227 210 177 175 182 189 197 206 232 228 214 180 192 203 215 229 229 222 207 204 209 211 211 210 204 199 195 192 190 188 185 182 179 177 175 173 171 170 169 167 166 165 164 163 162 162 162 162 161 162 162 163 164 165 167 170 173 176 179
261 262 262 259 257 258 263 266 268 270 271 271 271 271 276 280 280 279 276 270 261 252 243 240 237 233 225 220 196 177 182 189 192 194 198 231 232 216 172 184 197 213 228 228 218 202 204 210 212 211 210 203 199 195 192 189 187 184 182 179 177 175 173 172 170 169 168 166 165 165 164 164 164 164 163 163 164 164 165 166 167 170 173 176 179 182
259 260 260 256 254 253 256 259 260 261 261 261 263 264 267 271 276 278 280 277 275 271 268 265 259 246 229 220 203 189 190 191 190 191 202 226 228 211 162 177 194 211 226 224 208 191 203 211 213 213 212 203 199 195 191 189 186 184 181 179 177 175 174 172 171 170 168 167 166 166 165 166 166 165 165 165 165 166 166 168 170 173 176 179 181 184
265 263 262 260 257 255 254 255 256 257 256 257 258 260 262 265 269 274 277 277 277 276 274 268 259 249 238 226 217 207 196 191 190 193 202 221 221 202 166 180 193 207 220 216 196 191 202 212 214 215 216 205 198 194 191 188 186 183 180 178 177 175 174 173 172 170 169 168 167 167 167 167 167 167 166 166 167 167 168 170 172 175 177 180 182 185
276 275 274 273 271 268 265 264 264 264 263 262 261 261 262 264 266 268 269 270 271 272 271 263 254 247 238 227 218 209 190 188 192 197 200 212 212 195 174 182 193 201 202 177 174 196 202 211 213 215 219 210 199 194 190 187 185 182 180 178 177 175 174 173 172 170 169 168 168 168 168 168 168 168 167 168 168 169 170 172 174 176 178 179 182 185
280 281 282 282 281 280 280 280 279 278 275 273 270 268 267 265 263 260 258 259 261 263 262 256 251 246 237 227 218 206 180 183 192 200 200 206 207 198 178 180 188 192 180 160 173 197 205 212 213 214 220 220 207 197 190 187 184 182 179 178 177 175 174 172 171 170 169 168 168 168 168 168 168 168 168 169 169 170 171 173 174 175 176 177 180 184
279 280 281 282 283 284 286 287 288 288 286 284 281 278 273 267 260 255 253 253 255 256 255 253 251 247 238 227 216 198 176 183 191 196 194 203 209 202 172 176 181 180 162 145 156 201 218 225 228 230 237 239 221 202 192 187 184 181 179 177 176 175 173 171 170 169 168 168 168 168 168 168 168 169 169 170 170 171 172 173 174 174 175 175 175 179
274 274 275 276 277 279 280 281 282 283 284 284 284 283 279 270 261 257 257 255 254 254 255 256 255 252 245 234 216 191 181 187 187 186 182 200 210 199 159 169 175 172 151 132 114 25 267 265 270 277 278 268 243 212 194 188 184 180 179 177 175 173 171 170 168 167 167 167 167 167 168 168 169 169 170 170 171 172 172 172 172 171 170 169 169 170
268 268 269 270 271 273 274 275 275 276 276 277 277 277 276 269 263 261 261 256 252 252 256 258 257 254 251 243 226 203 195 189 180 175 178 197 202 183 150 168 173 167 149 139 135 176 249 242 251 283 300 284 262 227 195 185 181 178 176 175 174 172 170 168 167 166 165 165 166 167 167 168 169 169 170 170 171 171 171 170 168 165 160 159 160 162
266 265 266 266 267 268 269 269 270 270 271 272 272 271 268 264 262 260 260 255 251 251 254 255 254 252 251 246 238 226 210 184 173 172 179 197 198 175 156 172 174 168 161 160 165 181 208 206 206 254 333 308 289 255 201 175 167 164 163 166 169 170 169 166 164 163 163 164 165 166 167 167 168 169 169 170 170 170 169 166 163 159 155 156 157 160
265 265 265 265 265 264 264 265 266 268 268 268 267 265 263 261 259 258 257 253 250 250 252 253 252 250 248 247 244 239 223 179 171 174 180 193 193 170 165 174 173 170 174 180 184 188 188 182 173 158 28 321 307 288 228 167 156 152 150 152 156 161 164 162 161 160 161 163 164 165 166 167 167 168 168 169 169 168 166 163 161 159 157 158 159 160
267 265 264 264 264 263 263 263 265 266 266 265 264 263 262 260 258 257 256 253 251 250 251 252 252 250 248 248 248 247 239 193 176 177 180 187 183 169 170 173 171 169 175 185 190 190 180 163 151 144 156 270 310 309 281 166 154 151 149 149 150 154 158 158 158 157 158 160 162 164 166 166 167 167 168 168 168 166 163 161 160 160 159 158 157 156
270 268 267 267 267 266 266 265 264 263 263 262 261 260 259 258 257 255 253 252 251 250 250 251 251 251 249 249 250 250 242 215 184 179 180 185 181 169 169 174 172 167 168 174 171 158 149 150 146 143 153 174 301 319 310 179 156 153 150 150 150 151 154 156 155 155 156 156 159 162 164 165 166 168 168 168 167 165 163 161 161 160 159 157 155 153
270 270 269 269 269 268 266 264 263 261 260 259 258 257 256 255 254 253 252 250 249 248 248 248 248 248 248 248 250 249 240 217 190 183 182 185 180 167 169 179 175 169 169 172 169 161 156 159 157 154 149 158 184 277 306 332 111 149 147 149 150 152 154 155 155 154 155 154 156 158 161 162 165 167 169 169 168 166 163 162 162 161 159 157 156 155
267 267 266 266 265 264 264 262 261 260 259 258 256 255 255 254 253 253 252 251 249 248 247 245 244 244 243 245 248 249 244 216 193 188 187 185 178 171 175 182 178 172 172 175 175 172 168 164 162 160 156 160 169 186 237 339 1 107 140 147 150 151 153 154 154 154 154 155 156 157 158 160 163 165 167 168 167 165 164 163 162 161 160 159 158 158
264 263 261 260 259 259 260 259 258 258 258 257 256 255 255 255 255 254 254 252 250 248 247 244 242 240 238 240 244 247 249 233 209 198 191 184 179 176 181 180 176 175 177 176 175 173 168 163 163 165 168 170 169 166 164 156 147 149 152 153 152 151 152 153 154 154 154 156 157 157 157 158 160 162 163 166 165 164 163 163 163 162 161 160 158 157
260 258 257 254 253 253 255 255 254 254 255 255 256 256 256 257 257 257 257 255 253 250 249 246 243 240 238 237 239 243 247 239 222 206 194 185 181 180 181 173 176 180 183 177 172 169 168 166 168 172 178 178 172 162 158 160 165 167 163 156 151 149 152 153 153 154 155 156 156 156 156 156 157 157 159 162 162 162 162 164 164 164 162 160 158 156
259 258 258 256 254 253 253 253 253 253 252 252 253 255 257 258 257 257 257 256 254 252 251 250 248 244 238 234 235 238 241 234 222 209 198 189 185 183 179 173 176 181 184 177 173 171 172 173 174 175 176 173 169 163 159 164 167 166 158 149 145 149 154 154 155 155 156 155 155 154 154 155 155 156 158 160 161 161 163 163 165 166 165 163 160 156
263 262 262 260 259 257 256 256 255 255 255 255 256 258 259 260 259 257 255 254 253 253 253 252 251 248 242 237 235 235 234 225 213 206 201 193 189 186 183 178 176 176 176 176 176 176 177 178 178 176 173 169 165 163 164 170 171 166 158 154 157 163 165 159 157 157 156 156 156 156 155 155 156 158 161 163 165 165 166 165 166 167 168 167 164 160
263 262 261 260 259 259 259 259 259 259 259 261 262 262 261 261 261 259 256 254 252 251 251 250 250 249 245 242 239 236 230 216 206 202 202 196 192 189 187 181 176 172 171 174 177 178 179 179 176 173 171 167 162 161 165 171 172 169 166 166 166 163 160 159 158 156 155 157 158 158 157 157 159 162 165 166 167 166 165 163 165 167 168 170 170 167
260 259 258 258 257 257 258 259 260 260 260 261 261 260 259 258 257 257 256 254 252 249 246 246 246 246 246 245 243 238 227 210 201 200 201 197 193 190 187 181 175 170 168 172 176 180 182 179 176 172 170 165 162 161 166 170 172 174 175 169 159 150 148 160 160 156 156 158 159 159 160 160 163 165 166 164 160 156 156 159 162 164 166 168 170 171
257 257 258 258 259 260 261 261 260 259 258 257 256 256 256 255 254 253 254 254 253 251 248 245 243 242 243 245 242 235 222 203 196 195 198 196 194 191 187 181 174 169 167 170 175 179 182 181 179 175 171 166 163 163 163 166 171 176 178 169 160 154 157 168 166 160 158 158 159 160 162 164 165 164 160 155 149 146 147 153 158 161 162 160 159 161
261 261 261 261 260 260 259 257 255 254 253 253 254 254 254 253 254 255 257 255 252 249 248 247 247 247 248 246 240 231 220 202 195 194 196 195 194 192 188 181 175 171 170 172 174 175 177 180 179 176 170 166 165 164 163 165 170 174 176 171 169 168 169 163 160 159 160 160 161 162 163 160 156 151 147 141 139 141 147 150 153 154 153 149 145 142
269 267 263 260 258 255 254 252 251 251 251 251 251 251 252 252 252 252 253 251 247 244 243 245 249 251 251 246 236 224 212 205 201 199 198 196 195 193 189 182 176 173 175 177 176 175 174 175 173 169 164 164 165 166 165 166 169 171 172 172 172 171 164 154 155 160 162 161 162 162 160 153 146 141 141 142 145 147 150 150 149 147 146 146 145 146
276 271 266 263 260 258 256 254 253 252 251 250 250 250 250 249 248 247 247 246 245 243 242 244 249 253 253 245 233 218 203 203 205 205 201 196 194 194 192 184 177 175 177 179 179 178 176 172 166 160 157 161 165 168 168 167 168 169 170 170 168 163 151 154 160 163 162 161 160 158 155 148 145 146 150 150 151 151 151 151 151 151 150 150 152 153
271 270 268 266 264 262 261 258 256 253 251 249 248 248 248 246 245 245 245 244 243 243 243 246 248 250 249 241 228 212 203 202 203 204 201 194 190 189 189 182 176 174 175 177 178 179 179 172 166 161 159 160 163 167 169 169 169 169 169 167 165 161 158 163 166 166 162 160 158 154 151 149 151 154 154 151 148 145 143 144 146 148 150 152 154 155
266 265 264 264 263 263 261 258 256 253 252 250 249 248 246 244 244 245 246 243 243 243 243 244 245 244 241 232 222 212 204 201 200 198 196 190 183 177 172 162 157 155 155 153 155 160 164 160 160 161 164 163 163 164 166 168 169 169 167 165 163 163 162 165 165 164 160 158 156 154 153 155 158 158 154 149 146 144 142 141 141 144 147 151 154 156
260 259 259 260 260 260 258 256 255 254 253 252 251 250 247 246 244 244 244 241 240 240 240 240 238 236 232 227 221 213 206 202 197 193 190 183 174 163 151 139 127 114 104 97 93 91 86 87 94 117 153 164 164 162 162 165 165 164 162 163 163 163 162 162 162 161 158 156 155 156 158 160 160 158 152 150 149 149 146 144 143 143 145 150 154 156
257 256 255 256 256 256 256 255 255 254 254 253 253 252 251 249 245 241 239 238 238 238 237 233 230 228 226 223 217 210 204 200 195 189 185 177 167 157 148 139 131 122 114 103 95 90 84 71 54 41 31 69 149 159 160 160 159 158 158 161 162 162 160 159 159 159 157 155 155 156 157 157 155 153 152 152 151 149 146 146 147 148 147 147 151 154
259 257 256 255 254 254 254 253 252 252 252 251 252 253 254 252 248 242 237 237 238 238 233 226 222 222 223 220 214 206 200 196 191 185 180 172 163 157 151 147 142 138 133 131 129 126 123 114 95 56 26 26 44 133 163 157 155 154 157 160 160 159 157 156 156 156 155 155 155 155 154 153 153 154 157 155 152 151 150 152 154 155 154 151 151 154